GW4712 Weather Reports


time (UTC)temp
F
wind
direction
speed
knots
gust
knots
rain 1hr
in
rain 24hr
in
rain mn
in
humidity
%
barometer
mb
20260506153212 60 315 4.3 5.2 0.07 0.66 0.66 98 1009.7
20260506152709 60 311 1.7 1.7 0.00 0.65 0.65 98 1009.6
20260506152206 60 298 0.0 0.9 0.00 0.65 0.65 98 1009.4
20260506151706 60 294 0.9 1.7 0.00 0.65 0.65 98 1009.4
20260506151201 60 299 0.9 0.9 0.05 0.65 0.65 98 1009.5
20260506150658 60 303 0.0 1.7 0.05 0.65 0.65 98 1009.6
20260506150155 60 297 0.9 1.7 0.00 0.64 0.64 98 1009.2
20260506145652 60 291 0.0 1.7 0.00 0.64 0.64 98 1009.3
20260506145149 60 277 0.9 1.7 0.00 0.64 0.64 97 1009.1
20260506144647 60 315 1.7 2.6 0.00 0.64 0.64 97 1009.3
20260506144143 60 219 0.0 1.7 0.00 0.64 0.64 97 1009.2
20260506143641 60 308 4.3 6.1 0.00 0.64 0.64 97 1009.3
20260506143139 60 311 0.0 3.5 0.00 0.64 0.64 97 1009.0
20260506142637 60 160 1.7 3.5 0.00 0.64 0.64 97 1008.8
20260506142135 60 243 1.7 7.0 0.00 0.64 0.64 97 1008.8
20260506141632 59 258 2.6 8.7 0.00 0.64 0.64 96 1008.8
20260506141130 60 253 0.9 6.1 0.00 0.64 0.64 96 1008.8
20260506140627 60 309 2.6 6.1 0.00 0.64 0.64 96 1008.6
20260506140124 60 252 2.6 5.2 0.00 0.64 0.64 96 1008.3
20260506135621 60 244 3.5 3.5 0.00 0.64 0.64 97 1008.2
20260506135118 60 235 0.9 1.7 0.00 0.64 0.64 97 1008.2
20260506134614 59 213 1.7 5.2 0.00 0.64 0.64 97 1008.0
20260506134110 59 281 1.7 2.6 0.00 0.64 0.64 97 1008.1
20260506133608 59 318 2.6 6.1 0.00 0.64 0.64 96 1008.4
20260506133104 60 257 2.6 3.5 0.00 0.64 0.64 96 1008.5
20260506132602 60 251 2.6 3.5 0.00 0.64 0.64 95 1008.3
20260506132058 60 180 0.9 7.8 0.00 0.64 0.64 95 1008.4
20260506131556 59 240 0.9 1.7 0.00 0.64 0.64 96 1008.3
20260506131052 59 265 0.9 2.6 0.00 0.64 0.64 96 1008.5
20260506130549 59 253 1.7 5.2 0.00 0.64 0.64 96 1008.5
20260506130047 59 293 0.9 1.7 0.00 0.64 0.64 97 1008.4
20260506125545 59 278 0.9 2.6 0.00 0.64 0.64 97 1008.3
20260506125042 58 259 2.6 2.6 0.00 0.64 0.64 98 1008.2
20260506124540 58 190 0.9 1.7 0.00 0.64 0.64 98 1008.1
20260506124037 58 245 0.0 0.9 0.00 0.64 0.64 98 1008.1
20260506123535 58 312 1.7 2.6 0.00 0.64 0.64 98 1008.0
20260506123034 58 325 0.9 0.9 0.00 0.64 0.64 99 1008.0
20260506122530 58 52 0.9 0.9 0.00 0.64 0.64 99 1007.9
20260506122028 58 212 0.0 1.7 0.00 0.64 0.64 99 1007.9
20260506121525 58 127 0.9 1.7 0.00 0.64 0.64 99 1007.8
20260506121021 57 146 0.0 0.0 0.07 0.64 0.64 99 1008.1
20260506120520 57 47 0.0 2.6 0.07 0.64 0.64 99 1008.0
20260506120016 57 260 0.0 3.5 0.00 0.63 0.63 99 1008.1
20260506115514 57 108 0.9 1.7 0.00 0.63 0.63 99 1007.9
20260506115012 57 74 0.0 0.0 0.07 0.63 0.63 99 1007.9
20260506114509 57 74 0.0 0.0 0.07 0.63 0.63 99 1008.2
20260506114008 57 74 0.0 0.0 0.00 0.62 0.62 99 1008.1
20260506113505 57 29 0.0 0.0 0.00 0.62 0.62 99 1008.0
20260506113002 57 26 0.0 0.0 0.05 0.62 0.62 99 1008.0
20260506112459 57 23 0.0 0.0 0.12 0.62 0.62 99 1007.8
20260506111956 57 23 0.0 0.0 0.07 0.61 0.61 99 1007.8
20260506111454 57 23 0.0 0.0 0.05 0.60 0.60 99 1007.9
20260506110951 57 23 0.0 0.0 0.05 0.60 0.60 99 1008.0
20260506110449 57 23 0.0 0.0 0.07 0.59 0.59 99 1007.7
20260506105945 57 23 0.0 0.0 0.12 0.59 0.59 99 1007.9
20260506105441 57 23 0.0 0.0 0.05 0.58 0.58 99 1007.8
20260506104939 57 22 0.0 0.0 0.07 0.57 0.57 99 1007.8
20260506104437 57 23 0.0 0.0 0.19 0.57 0.57 99 1007.6
20260506103935 57 22 0.0 0.0 0.17 0.56 0.56 99 1007.7
20260506103432 57 22 0.0 0.0 0.17 0.54 0.54 99 1007.6
20260506102929 57 28 0.0 0.0 0.12 0.53 0.53 99 1007.5
20260506102427 57 27 0.0 0.0 0.07 0.51 0.51 99 1007.6
20260506101924 57 27 0.0 0.0 0.14 0.51 0.51 99 1007.5
20260506101419 57 27 0.0 0.9 0.12 0.49 0.49 99 1007.5
20260506100917 57 27 1.7 1.7 0.12 0.49 0.49 99 1007.7
20260506100416 57 27 0.0 0.9 0.05 0.47 0.47 99 1007.4
20260506095913 57 26 0.0 0.9 0.17 0.47 0.47 99 1007.6
20260506095411 57 79 0.9 0.9 0.24 0.46 0.46 99 1007.5
20260506094907 57 33 0.0 1.7 0.19 0.44 0.44 99 1007.6
20260506094406 57 41 0.0 0.0 0.07 0.42 0.42 99 1007.7
20260506093903 57 50 0.0 0.9 0.05 0.41 0.41 99 1007.7
20260506093401 57 59 0.9 0.9 0.05 0.41 0.41 99 1007.4
20260506092858 57 67 0.0 0.9 0.07 0.40 0.40 99 1007.7
20260506092356 57 113 0.0 0.0 0.12 0.40 0.40 99 1007.8
20260506091852 57 97 0.0 0.0 0.12 0.39 0.39 99 1008.1
20260506091351 57 218 0.0 0.0 0.19 0.38 0.38 99 1008.3
20260506090848 57 252 0.0 0.0 0.24 0.37 0.37 99 1008.3
20260506090345 57 252 0.0 0.0 0.31 0.35 0.35 99 1008.4
20260506085837 57 252 0.0 0.0 0.35 0.33 0.33 99 1008.3
20260506085333 57 252 0.0 0.9 0.24 0.30 0.30 99 1008.2
20260506084830 57 263 0.0 0.0 0.31 0.27 0.27 99 1008.5
20260506084327 57 246 0.0 0.9 0.71 0.26 0.26 99 1008.5
20260506083823 57 256 0.0 0.0 0.90 0.22 0.22 99 1008.5
20260506083321 57 301 0.0 0.0 0.59 0.13 0.13 99 1008.7
20260506082818 57 298 0.9 1.7 0.17 0.06 0.06 99 1008.9
20260506082314 57 319 3.5 3.5 0.00 0.03 0.03 99 1008.6
20260506081811 57 325 0.0 0.0 0.07 0.03 0.03 99 1008.2
20260506081309 57 325 0.0 0.0 0.07 0.03 0.03 99 1007.9
20260506080806 57 325 0.0 0.0 0.00 0.02 0.02 98 1008.0
20260506080302 57 325 0.0 0.0 0.00 0.02 0.02 98 1007.8
20260506073246 57 325 0.0 0.0 0.00 0.01 0.01 98 1007.6
20260506072743 57 325 0.0 0.0 0.07 0.01 0.01 98 1007.6
20260506072241 57 325 0.0 1.7 0.00 0.00 0.00 98 1007.9
20260506071738 57 325 0.0 0.0 0.00 0.00 0.00 98 1007.8
20260506071236 57 325 0.0 0.0 0.00 0.00 0.00 98 1007.9
20260506070733 57 325 0.0 0.9 0.00 0.00 0.00 98 1007.9
20260506070230 57 325 0.0 0.0 0.00 0.00 0.00 98 1007.8
20260506062207 57 325 0.0 0.0 0.00 0.00 0.00 97 1007.9
20260506061702 57 325 0.0 0.0 0.00 0.00 0.00 97 1007.8
20260506061159 57 325 0.0 0.0 0.00 0.00 0.00 97 1008.0
20260506060659 57 325 0.0 0.0 0.00 0.00 0.00 97 1008.1
20260506060155 58 325 0.0 0.0 0.00 0.00 0.00 97 1008.3
20260506051126 58 325 0.0 0.0 0.00 0.00 0.00 95 1008.7
20260506050625 58 325 0.0 0.0 0.00 0.00 0.00 94 1008.8
20260506050122 58 325 0.0 0.0 0.00 0.00 0.00 94 1009.1
20260506045115 58 325 0.0 0.0 0.00 0.00 0.00 92 1009.0
20260506044613 58 325 0.0 0.0 0.00 0.00 0.00 92 1008.8
20260506044109 58 325 0.0 0.0 0.00 0.00 0.00 92 1009.0
20260506043607 58 325 0.0 0.0 0.00 0.00 0.00 91 1009.4
20260506043105 58 325 0.0 0.0 0.00 0.00 0.00 91 1009.0
20260506042604 59 325 0.0 0.0 0.00 0.00 0.00 90 1009.2
20260506042101 59 325 0.0 0.0 0.00 0.00 0.00 89 1009.1
20260506041600 59 325 0.0 0.0 0.00 0.00 0.00 88 1009.4
20260506041056 59 325 0.0 0.0 0.00 0.00 0.00 87 1009.4
20260506040554 60 325 0.0 0.0 0.00 0.00 0.00 86 1009.5
20260506040050 60 325 0.0 0.0 0.00 0.00 0.00 85 1009.6
20260506035548 60 325 0.0 0.0 0.00 0.00 0.00 85 1009.5
20260506035044 60 325 0.0 0.0 0.00 0.00 0.00 84 1009.6
20260506034541 60 325 0.0 0.9 0.00 0.00 0.00 82 1009.2
20260506034038 60 325 0.0 0.0 0.00 0.00 0.00 82 1009.1
20260506033535 61 325 0.0 0.0 0.00 0.00 0.00 82 1009.1
20260506033032 61 325 0.0 0.0 0.00 0.00 0.00 80 1008.7
20260506032530 60 324 0.0 0.0 0.00 0.00 0.00 81 1009.2
20260506032026 61 325 0.0 0.0 0.00 0.00 0.00 82 1008.9
20260506031524 61 325 0.0 0.0 0.00 0.00 0.00 81 1009.1
20260506031021 60 324 0.0 0.9 0.00 0.00 0.00 83 1009.2
20260506030519 61 324 0.9 0.9 0.00 0.00 0.00 84 1009.5
20260506030016 61 324 0.9 0.9 0.00 0.00 0.00 79 1009.2
20260506025513 61 325 0.0 0.0 0.00 0.00 0.00 78 1009.1
20260506025009 62 325 0.0 0.0 0.00 0.00 0.00 79 1009.1
20260506024507 62 325 0.0 0.0 0.00 0.00 0.00 80 1009.0
20260506024002 62 325 0.0 0.9 0.00 0.00 0.00 78 1009.1
20260506023459 62 314 0.0 1.7 0.00 0.00 0.00 76 1009.0
20260506022955 62 311 1.7 1.7 0.00 0.00 0.00 77 1008.9
20260506022453 62 170 0.0 0.0 0.00 0.00 0.00 73 1008.9
20260506021950 62 169 0.0 0.0 0.00 0.00 0.00 74 1008.8
20260506021448 63 169 0.0 0.0 0.00 0.00 0.00 76 1008.9
20260506020945 63 169 0.0 0.0 0.00 0.00 0.00 77 1009.2
20260506020443 63 169 0.0 0.0 0.00 0.00 0.00 73 1009.6
20260506015939 63 169 0.0 0.0 0.00 0.00 0.00 72 1009.4
20260506015437 64 170 0.0 0.0 0.00 0.00 0.00 72 1009.4
20260506014934 64 170 0.0 0.0 0.00 0.00 0.00 68 1009.1
20260506014431 64 169 0.0 0.0 0.00 0.00 0.00 65 1009.1
20260506013927 65 144 0.0 0.0 0.00 0.00 0.00 66 1009.1
20260506013425 66 277 0.0 0.9 0.00 0.00 0.00 64 1009.0
20260506012921 67 277 0.0 0.0 0.00 0.00 0.00 57 1009.2
20260506012418 69 278 0.0 0.9 0.00 0.00 0.00 52 1009.4
20260506011915 71 277 0.9 1.7 0.00 0.00 0.00 48 1009.5
20260506011412 71 243 3.5 6.1 0.00 0.00 0.00 45 1009.6
20260506010909 71 319 1.7 6.1 0.00 0.00 0.00 46 1009.6
20260506010407 71 191 1.7 7.8 0.00 0.00 0.00 47 1009.6
20260506005903 71 291 3.5 5.2 0.00 0.00 0.00 48 1009.7
20260506005401 71 258 3.5 7.0 0.00 0.00 0.00 47 1009.8
20260506004856 70 299 3.5 8.7 0.00 0.00 0.00 49 1009.7
20260506004355 64 305 0.9 0.9 0.00 0.00 0.00 75 1009.8
20260506003850 64 220 0.0 0.0 0.00 0.00 0.00 73 1009.7
20260506003346 64 221 0.0 0.0 0.00 0.00 0.00 72 1009.5
20260506002843 65 220 0.0 0.0 0.00 0.00 0.00 71 1009.6
20260506002340 65 220 0.0 0.0 0.00 0.00 0.00 72 1009.4
20260506001835 65 220 0.0 0.0 0.00 0.00 0.00 71 1009.3
20260506001332 65 220 0.0 0.0 0.00 0.00 0.00 69 1009.3
20260506000829 66 220 0.0 0.0 0.00 0.00 0.00 67 1009.4
20260506000329 66 220 0.0 0.9 0.00 0.00 0.00 68 1009.4
20260505235824 67 220 0.0 0.0 0.00 0.00 0.00 66 1009.4
20260505235321 67 221 0.0 0.0 0.00 0.00 0.00 65 1009.4
20260505234818 67 221 0.0 0.0 0.00 0.00 0.00 65 1009.4
20260505234316 68 222 0.0 0.0 0.00 0.00 0.00 63 1009.3
20260505233813 68 222 0.0 1.7 0.00 0.00 0.00 62 1009.3
20260505233310 69 309 0.0 0.0 0.00 0.00 0.00 60 1009.4
20260505232807 70 310 0.0 0.9 0.00 0.00 0.00 56 1009.3
20260505232305 71 311 0.0 0.0 0.00 0.00 0.00 54 1009.2
20260505231801 72 311 0.0 0.0 0.00 0.00 0.00 52 1009.0
20260505231300 73 307 1.7 1.7 0.00 0.00 0.00 43 1009.2
20260505230758 73 217 0.0 1.7 0.00 0.00 0.00 43 1009.1
20260505230254 73 311 1.7 2.6 0.00 0.00 0.00 43 1009.4
20260505225751 73 312 1.7 3.5 0.00 0.00 0.00 42 1009.5
20260505225249 73 310 2.6 6.1 0.00 0.00 0.00 41 1009.5
20260505224743 74 308 3.5 7.0 0.00 0.00 0.00 43 1009.5
20260505224241 74 317 0.9 2.6 0.00 0.00 0.00 43 1009.4
20260505223738 74 311 1.7 5.2 0.00 0.00 0.00 41 1009.4
20260505223234 74 211 3.5 5.2 0.00 0.00 0.00 43 1009.3
20260505222730 74 310 3.5 5.2 0.00 0.00 0.00 43 1009.5
20260505222227 74 231 2.6 2.6 0.00 0.00 0.00 42 1009.5
20260505221724 74 303 3.5 6.1 0.00 0.00 0.00 41 1009.5
20260505221221 75 324 2.6 7.0 0.00 0.00 0.00 42 1009.5
20260505220718 75 182 3.5 3.5 0.00 0.00 0.00 41 1009.4
20260505220216 76 305 5.2 6.1 0.00 0.00 0.00 40 1009.5
20260505215713 75 246 4.3 6.1 0.00 0.00 0.00 40 1009.9
20260505215211 75 190 2.6 5.2 0.00 0.00 0.00 40 1009.8
20260505214708 74 312 3.5 8.7 0.00 0.00 0.00 43 1009.8
20260505214206 75 259 1.7 3.5 0.00 0.00 0.00 42 1009.8
20260505213703 74 179 1.7 7.0 0.00 0.00 0.00 41 1009.9
20260505213200 74 340 3.5 11.3 0.00 0.00 0.00 41 1010.0
20260505212655 74 249 6.1 7.8 0.00 0.00 0.00 41 1010.2
20260505212153 75 262 5.2 6.1 0.00 0.00 0.00 40 1010.1
20260505211650 75 248 6.1 8.7 0.00 0.00 0.00 40 1010.4
20260505211147 74 253 4.3 7.0 0.00 0.00 0.00 42 1010.3
20260505210644 74 261 4.3 9.6 0.00 0.00 0.00 43 1010.1
20260505210140 75 313 1.7 5.2 0.00 0.00 0.00 42 1010.4
20260505205638 75 323 9.6 11.3 0.00 0.00 0.00 40 1010.2
20260505205136 76 223 5.2 6.1 0.00 0.00 0.00 40 1010.1
20260505204627 76 215 2.6 7.0 0.00 0.00 0.00 41 1010.2
20260505204125 75 242 3.5 8.7 0.00 0.00 0.00 42 1010.5
20260505203621 75 240 1.7 13.0 0.00 0.00 0.00 41 1010.6
20260505203118 75 320 7.0 7.8 0.00 0.00 0.00 42 1010.2
20260505202614 75 307 2.6 11.3 0.00 0.00 0.00 41 1010.3
20260505202110 75 302 5.2 8.7 0.00 0.00 0.00 41 1010.4
20260505201607 75 321 5.2 13.9 0.00 0.00 0.00 42 1010.2
20260505201105 75 307 2.6 11.3 0.00 0.00 0.00 41 1010.1
20260505200602 75 281 5.2 11.3 0.00 0.00 0.00 41 1010.2
20260505200059 75 261 6.1 9.6 0.00 0.00 0.00 41 1010.4
20260505195555 75 246 11.3 14.8 0.00 0.00 0.00 40 1010.6
20260505195053 75 242 5.2 11.3 0.00 0.00 0.00 43 1010.5
20260505194550 75 280 6.1 20.0 0.00 0.00 0.00 43 1010.4
20260505194045 75 293 4.3 9.6 0.00 0.00 0.00 43 1010.5
20260505193543 75 264 6.1 8.7 0.00 0.00 0.00 43 1010.4
20260505193040 75 224 6.1 9.6 0.00 0.00 0.00 40 1010.7
20260505192538 75 299 7.0 14.8 0.00 0.00 0.00 42 1010.6
20260505192036 75 313 5.2 7.8 0.00 0.00 0.00 42 1010.5
20260505191534 75 254 4.3 8.7 0.00 0.00 0.00 42 1010.6
20260505191031 75 226 3.5 5.2 0.00 0.00 0.00 45 1010.5
20260505190526 75 268 3.5 6.1 0.00 0.00 0.00 44 1010.4
20260505190022 76 330 9.6 13.9 0.00 0.00 0.00 43 1010.7
20260505185519 75 299 4.3 13.0 0.00 0.00 0.00 44 1010.6
20260505185015 76 305 1.7 6.1 0.00 0.00 0.00 44 1010.3
20260505184513 76 311 2.6 6.1 0.00 0.00 0.00 41 1010.6
20260505184009 76 206 6.1 9.6 0.00 0.00 0.00 42 1010.7
20260505183506 76 313 3.5 13.0 0.00 0.00 0.00 44 1011.1
20260505183003 76 203 4.3 13.9 0.00 0.00 0.00 43 1010.7
20260505182500 76 270 5.2 13.0 0.00 0.00 0.00 43 1011.1
20260505181955 76 207 7.8 9.6 0.00 0.00 0.00 42 1010.8
20260505181453 76 241 1.7 9.6 0.00 0.00 0.00 40 1010.8
20260505180950 76 225 9.6 13.9 0.00 0.00 0.00 40 1010.7
20260505180446 76 132 3.5 9.6 0.00 0.00 0.00 39 1011.1
20260505175943 76 233 9.6 13.0 0.00 0.00 0.00 41 1010.6
20260505175439 76 316 5.2 13.0 0.00 0.00 0.00 42 1010.9
20260505174936 75 311 3.5 13.9 0.00 0.00 0.00 43 1010.5
20260505174433 76 282 4.3 12.2 0.00 0.00 0.00 43 1010.7
20260505173929 75 325 7.0 9.6 0.00 0.00 0.00 45 1010.7
20260505173426 76 244 4.3 8.7 0.00 0.00 0.00 42 1010.5
20260505172923 76 241 3.5 11.3 0.00 0.00 0.00 44 1010.7
20260505172421 76 321 12.2 16.5 0.00 0.00 0.00 43 1010.7
20260505171920 76 255 10.4 12.2 0.00 0.00 0.00 42 1011.2
20260505171417 76 314 7.0 11.3 0.00 0.00 0.00 43 1011.1
20260505170914 76 187 5.2 7.0 0.00 0.00 0.00 43 1011.1
20260505170411 76 243 1.7 7.8 0.00 0.00 0.00 44 1010.9
20260505165906 76 203 7.8 15.6 0.00 0.00 0.00 44 1011.4
20260505165402 76 183 3.5 8.7 0.00 0.00 0.00 43 1010.9
20260505164857 76 214 4.3 7.8 0.00 0.00 0.00 45 1011.3
20260505164354 76 310 3.5 8.7 0.00 0.00 0.00 43 1011.5
20260505163853 75 255 3.5 9.6 0.00 0.00 0.00 43 1011.4
20260505163351 75 254 3.5 12.2 0.00 0.00 0.00 46 1011.4
20260505162850 75 259 5.2 7.0 0.00 0.00 0.00 45 1011.4
20260505162345 75 276 7.0 7.8 0.00 0.00 0.00 45 1011.4
20260505161843 74 301 3.5 12.2 0.00 0.00 0.00 47 1011.3
20260505161339 74 272 4.3 6.1 0.00 0.00 0.00 44 1011.5
20260505160837 74 257 7.8 9.6 0.00 0.00 0.00 43 1011.8
20260505160335 74 313 12.2 15.6 0.00 0.00 0.00 46 1011.4